SCP
0 0 0 0 0 0 0 0 0 0 0 0 0 0 0 0 0 0 0 0 0 0 0 0 0 0 0 0 0 0 0 0 0 0 0 0 0 0 0 0 0 0 0 0
0 0 0 0 0 0 0 0 0 0 0 0 0 0 0 0 0 0 0 0 0 0 0 0 0 0 0 0 0 0 0 0 0 0 0 0 0 0 0 0 0 0 0 0
0 0 0 0 0 0 0 0 0 0 0 0 0 0 0 0 0 0 0 0 0 0 0 0 0 0 0 0 0 0 0 0 0 0 0 0 0 0 0 0 0 0 0 0
0 0 0 0 0 0 0 0 0 0 0 0 0 0 0 0 0 0 0 0 0 0 0 0 0 0 0 0 0 0 0 0 0 0 0 0 0 0 0 0 0 0 0 0
0 0 0 0 0 0 0 0 0 0 0 0 0 0 0 0 0 0 0 0 0 0 0 0 0 0 0 0 0 0 0 0 0 0 0 0 0 -0 0 0 0 0 0 0
0 0 0 0 0 0 0 0 0 0 0 0 0 0 0 0 0 0 0 0 0 0 0 0 0 0 0 0 0 0 0 0 0 0 0 0 0 0 0 0 0 0 0 0
0 0 0 0 0 0 0 0 0 0 0 0 0 0 0 0 0 0 0 0 0 0 0 0 0 0 0 0 0 0 0 0 -0 -0 -0 -0 -0 -0 -0 -0 -0 0 0 0
0 0 0 0 0 0 0 0 0 0 0 0 0 0 0 0 0 0 0 0 0 0 0 0 0 0 0 0 -0 -0 -0 -0 -0 -0 -0 -0 -0 -0 0 0 0 0 0 0
0 0 0 0 0 0 0 0 0 0 0 0 0 0 0 0 0 0 0 0 0 0 0 0 0 0 -0 -0 -0 -0 -0 -0 0 0 0 0 0 0 0 0 0 0 0 0
0 0 0 0 0 0 0 0 0 0 0 0 0 0 0 0 0 0 0 0 0 0 0 0 0 0 0 0 -0 -0 0 0 0 0 0 0 0 0 0 0 0 0 0 0
0 0 0 0 0 0 0 0 0 0 0 0 0 0 0 0 0 0 0 0 0 0 0 0 0 0 -0 -0 -0 -0 -0 -0 -0 -0 -0 -0 -0 -0 -0 0 0 0 0 0
0 0 0 0 0 0 0 0 0 0 0 0 0 0 0 0 0 0 0 0 0 0 0 0 0 -0 -0 -0 -0 -0 -0 -0 -0 -0 -0 -0 -0 -0 -0 -0 -0 -0 -0 0
0 0 0 0 0 0 0 0 0 0 0 0 0 0 0 0 0 0 0 0 0 0 0 0 0 0 0 0 0 0 0 0 0 0 0 0 0 0 0 0 0 0 0 0
0 0 0 0 0 0 0 0 0 0 0 0 0 0 0 0 0 0 0 0 0 0 0 0 0 0 0 0 0 0 0 -0 -0 0 0 0 0 0 0 0 0 0 0 0
0 0 0 0 0 0 0 0 0 0 0 0 0 0 0 0 0 0 0 0 0 0 0 0 0 0 0 0 0 0 0 0 0 0 0 0 0 0 0 0 0 0 0 0
0 0 0 0 0 0 0 0 0 0 0 0 0 0 0 0 0 0 0 0 0 0 0 0 0 0 0 0 0 0 0 0 0 0 0 0 0 0 0 0 0 0 0 0
0 0 0 0 0 0 0 0 0 0 0 0 0 0 0 0 0 0 0 0 0 0 0 0 0 0 0 0 0 0 0 0 0 0 0 0 0 0 0 0 0 0 0 0
0 0 0 0 0 0 0 0 0 0 0 0 0 0 0 0 0 0 0 0 0 0 0 0 0 0 0 0 0 0 0 0 0 0 0 0 0 0 0 0 0 0 0 0
0 0 0 0 0 0 0 0 0 0 0 0 0 0 0 0 0 0 0 0 0 0 0 0 0 0 0 0 0 0 0 0 0 0 0 0 0 0 0 0 0 0 0 0
0 0 0 0 0 0 0 0 0 0 0 0 0 0 0 0 0 0 0 0 0 0 0 0 0 0 0 0 0 0 0 0 0 0 0 0 0 0 0 0 0 0 0 0
0 0 0 0 0 0 0 0 0 0 0 0 0 0 0 0 0 0 0 0 0 0 0 0 0 0 0 0 0 0 0 0 0 0 0 0 0 0 0 0 0 0 0 0
0 0 0 0 0 0 0 0 0 0 0 0 0 0 0 0 0 0 0 0 0 0 0 0 0 0 0 0 0 0 0 0 0 0 0 0 0 0 0 0 0 0 0 0
0 0 0 0 0 0 0 0 0 0 0 0 0 0 0 0 0 0 0 0 0 0 0 0 0 0 0 0 0 0 0 0 0 0 0 0 0 0 0 0 0 0 0 0
0 0 0 0 0 0 0 0 0 0 0 0 0 0 0 0 0 0 0 0 0 0 0 0 0 0 0 0 0 0 0 0 0 0 0 0 0 0 0 0 0 0 0 0
0 0 0 0 0 0 0 0 0 0 0 0 0 0 0 0 0 0 0 0 0 0 0 0 0 0 0 0 0 0 0 0 0 0 0 0 0 0 0 0 0 0 0 0
0 0 0 0 0 0 0 0 0 0 0 0 0 0 0 0 0 0 0 0 0 0 0 0 0 0 0 0 0 0 0 0 0 0 0 0 0 0 0 0 0 0 0 0
Wind_Speed_500mb
9 7 15 24 19 7 5 8 12 11 13 5 11 10 31 34 28 31 37 43 44 45 38 35 34 29 24 23 20 18 12 10 10 15 18 14 13 11 14 16 17 21 23 26
6 13 25 7 10 13 12 13 13 11 11 5 13 21 13 25 23 35 44 45 46 46 44 48 51 52 51 47 42 34 31 26 22 15 13 12 9 8 11 15 17 20 24 26
16 13 13 15 12 11 9 11 9 15 6 7 3 15 6 9 32 40 40 43 46 48 50 50 53 57 57 60 57 51 45 41 37 30 22 18 14 12 6 2 4 9 12 16
12 17 11 9 9 9 12 7 14 6 4 7 5 8 7 6 12 21 30 40 46 48 47 49 50 52 54 54 48 46 43 42 40 33 29 25 23 22 23 21 19 19 19 19
13 9 9 10 15 16 14 5 6 3 4 3 6 3 11 13 5 9 19 34 39 42 42 45 47 46 46 44 43 40 36 35 34 32 29 27 25 24 21 18 18 18 20 23
11 4 8 13 6 12 8 6 11 9 6 4 13 13 8 10 12 15 23 31 35 37 38 39 39 38 39 36 34 30 27 26 23 22 21 20 19 19 20 21 22 23 25 25
3 11 2 5 8 5 8 10 5 6 3 11 5 5 6 19 2 31 32 36 32 31 32 30 28 28 29 29 29 25 23 21 22 24 24 26 27 28 29 30 31 31 31 31
12 6 16 9 11 13 10 14 9 11 6 7 8 11 4 5 26 49 44 36 30 25 22 20 19 20 22 24 25 24 24 23 22 23 26 27 28 30 31 33 36 38 39 43
12 9 1 3 5 8 8 7 3 8 5 6 8 2 4 9 12 31 39 33 27 21 14 9 9 12 16 21 21 20 18 19 20 21 22 25 28 30 33 33 35 41 41 42
12 6 2 5 9 6 8 10 6 5 2 7 9 11 8 17 20 15 20 30 26 19 12 5 2 5 8 7 7 9 10 12 15 19 21 22 25 28 32 36 40 44 47 50
9 6 5 6 10 17 4 4 4 6 10 9 4 11 7 23 25 24 31 37 31 22 17 12 6 4 7 6 9 13 19 23 29 33 34 35 35 35 34 35 39 44 47 51
3 9 8 11 5 8 1 11 12 9 11 6 5 15 8 19 34 39 39 40 32 24 20 15 6 5 7 7 11 20 28 30 34 41 45 47 51 52 53 55 58 60 59 56
7 2 4 13 8 2 6 6 9 9 4 12 9 10 5 19 22 31 21 29 28 23 22 15 9 8 12 16 19 34 36 37 41 46 51 55 59 61 63 67 69 73 76 78
4 8 12 18 8 7 7 9 7 8 6 7 15 12 12 11 10 12 24 22 27 26 19 15 15 15 15 17 24 34 38 40 43 47 54 59 63 68 74 81 84 86 86 88
10 15 6 4 5 4 9 13 15 14 10 13 9 21 28 5 8 7 22 29 30 23 12 9 12 13 15 23 30 30 33 37 42 49 56 59 63 70 80 87 94 98 98 96
2 5 6 5 7 5 11 14 18 21 23 22 29 39 18 9 18 24 27 29 20 8 7 7 7 21 33 30 31 30 34 40 49 55 57 59 66 75 81 90 98 101 100 103
8 11 6 9 6 8 16 13 33 19 14 16 21 25 3 9 20 31 26 15 10 8 5 20 31 27 25 31 32 34 37 43 51 57 65 75 80 85 89 93 97 101 105 110
11 10 5 7 6 2 11 5 2 18 9 13 5 6 8 5 21 26 21 15 6 15 23 25 29 29 26 24 29 39 49 57 62 65 70 76 84 89 93 98 103 108 109 114
2 9 5 7 8 13 17 12 14 14 13 15 15 4 7 21 22 18 24 11 20 19 24 24 23 25 32 42 50 55 61 64 68 74 80 84 88 96 100 104 107 109 111 114
3 4 8 6 11 19 11 5 19 13 10 18 18 18 23 30 6 9 12 25 26 29 25 23 26 34 42 49 53 59 64 70 75 79 83 87 91 94 100 102 106 107 105 108
6 1 22 10 8 16 16 10 9 11 13 23 31 29 40 11 23 24 27 26 31 31 32 35 38 42 44 48 53 60 68 73 78 83 87 89 90 92 93 98 97 96 92 90
15 16 10 5 7 18 22 15 14 10 18 26 33 35 42 29 33 34 31 35 34 36 37 39 40 41 43 47 56 65 69 75 80 85 88 90 90 89 87 85 82 78 78 83
5 14 12 20 14 9 50 18 53 26 22 30 36 35 38 40 36 36 33 35 37 39 38 39 42 44 44 51 59 65 69 74 79 83 87 89 88 85 79 75 74 74 73 78
10 13 5 8 9 16 47 46 33 37 37 37 39 44 42 43 39 36 33 35 37 37 38 41 40 40 47 55 59 62 67 71 75 81 84 85 86 80 71 67 68 71 73 74
15 17 11 6 11 20 39 55 60 51 45 45 42 46 47 43 38 36 37 36 36 36 36 36 37 42 48 54 56 58 62 66 72 78 80 82 78 72 69 66 67 67 67 66
20 12 9 16 38 30 34 52 43 44 49 46 46 48 50 46 41 37 35 35 34 34 33 33 38 45 51 55 54 54 56 61 67 75 78 78 72 68 68 71 73 61 60 61
Wind_Direction_500mb
178 120 205 205 200 159 194 219 229 253 262 281 262 283 271 328 299 129 114 109 99 91 87 86 86 92 103 111 122 124 142 138 168 184 193 202 220 216 229 239 251 263 274 277
60 223 232 186 181 210 229 241 251 272 254 222 282 287 57 19 17 116 115 109 105 101 94 86 83 83 82 82 83 86 89 92 91 97 111 134 155 200 235 244 254 262 266 264
177 221 193 177 210 203 216 210 220 232 312 275 340 292 91 61 74 84 95 110 105 99 93 88 84 81 81 76 73 73 74 77 76 73 78 83 91 90 84 40 317 293 288 276
227 242 189 164 205 179 275 208 233 227 105 232 62 275 309 134 87 76 94 103 104 101 95 89 83 77 72 72 71 67 66 67 67 65 59 53 47 38 33 18 0 338 322 300
241 194 173 187 220 162 221 161 165 176 191 32 296 126 272 124 127 124 103 107 102 96 90 84 80 76 70 63 56 51 43 39 35 30 30 29 27 26 20 11 6 2 348 329
234 264 182 200 153 166 135 63 45 48 88 307 227 174 253 188 199 145 130 121 112 105 97 88 80 73 64 58 51 45 37 35 28 17 9 359 352 346 337 336 335 339 339 337
205 239 237 181 110 45 95 77 313 343 5 231 124 133 281 323 101 146 141 134 123 114 105 92 76 62 51 44 41 34 29 27 24 17 12 9 3 357 352 348 345 341 338 336
174 249 163 189 185 180 178 159 165 220 214 259 288 238 233 56 102 132 139 135 132 128 115 97 71 51 43 34 26 27 27 26 24 17 12 8 2 357 355 351 349 344 340 337
170 250 115 147 132 139 168 165 180 97 51 53 244 31 138 117 107 133 146 153 154 144 126 93 55 27 17 11 13 20 24 23 15 11 4 356 350 345 341 339 334 330 330 325
203 138 193 159 112 43 142 160 74 8 273 280 284 275 215 186 180 177 168 169 169 171 175 194 286 353 356 11 30 34 35 28 14 2 353 341 331 325 322 321 319 316 315 316
149 121 229 124 206 179 126 181 132 149 147 179 258 258 287 184 174 182 187 191 191 197 208 216 234 310 359 13 24 15 10 6 3 359 355 350 342 338 333 326 321 315 312 311
277 130 169 197 320 320 184 179 161 168 233 234 168 264 340 155 171 176 194 206 210 213 208 201 232 316 326 318 343 351 346 342 342 342 339 337 337 336 333 330 328 326 322 315
210 122 62 349 348 290 193 177 134 114 83 202 169 254 22 126 152 190 215 219 219 208 195 203 237 297 314 318 321 329 322 320 319 321 323 322 322 322 320 320 318 318 317 313
275 192 181 230 176 131 162 158 153 125 146 178 231 276 167 183 193 215 239 231 199 188 193 220 239 263 280 287 295 299 295 293 296 299 306 309 313 314 313 312 311 310 310 308
167 213 153 356 104 115 199 169 185 188 179 192 229 235 260 190 256 221 178 151 159 162 173 233 257 262 272 288 293 295 292 294 296 296 294 293 295 297 301 301 303 304 304 302
354 191 101 329 287 303 279 228 187 214 227 240 253 265 265 106 147 136 146 153 158 192 222 236 254 291 299 301 298 294 294 292 294 293 291 289 290 291 291 292 293 294 295 296
132 131 92 257 4 39 307 225 211 214 201 211 229 249 135 161 150 158 152 159 178 176 249 303 310 299 268 267 276 277 285 292 294 291 291 292 293 293 294 296 297 297 297 296
136 100 90 185 29 288 252 292 295 220 213 202 218 225 212 171 171 157 166 163 196 285 296 291 292 279 272 272 282 290 297 300 300 299 300 300 301 303 303 303 302 301 299 297
17 132 114 161 190 307 279 229 179 169 260 193 194 202 191 152 151 192 204 240 306 277 269 285 292 280 284 291 299 304 306 308 309 310 310 310 310 309 308 307 306 305 303 300
165 28 144 115 168 212 242 273 124 105 287 208 171 186 173 163 161 235 237 291 292 283 266 269 276 287 294 299 303 306 309 313 315 315 315 315 314 314 312 311 309 306 304 302
94 68 211 200 227 284 244 200 131 106 243 167 196 201 177 182 212 283 282 272 282 272 260 273 284 294 299 303 306 311 315 317 318 319 318 319 318 316 314 311 309 308 307 306
162 160 200 131 196 264 178 126 165 194 173 191 198 196 192 231 273 275 273 275 259 248 260 276 290 298 302 306 312 316 319 320 320 320 321 320 319 317 315 313 312 312 311 310
227 194 182 187 202 225 176 185 209 217 207 198 198 211 242 259 263 273 268 260 249 260 272 286 295 299 307 314 318 320 321 320 320 321 321 322 321 321 322 318 317 316 315 313
249 162 202 96 225 214 197 213 221 218 234 245 258 272 265 262 266 266 258 255 258 270 280 287 293 301 312 318 321 322 320 320 320 322 324 327 326 324 322 321 321 318 316 313
207 143 161 259 260 234 229 234 245 250 256 261 263 267 265 262 255 256 257 257 263 269 279 285 294 305 314 318 320 320 318 320 324 325 329 330 326 325 326 326 324 318 317 309
197 185 199 233 236 226 240 266 263 255 248 252 254 257 259 250 255 257 258 259 263 273 278 285 298 309 316 318 321 318 319 324 328 329 334 330 328 330 330 328 328 327 318 307
Wind_Speed_850mb
9 7 15 24 19 7 5 8 12 11 13 5 11 10 31 34 28 31 37 43 44 45 38 35 34 29 24 23 20 18 12 10 10 15 18 14 13 11 14 16 17 21 23 26
6 13 25 7 10 13 12 13 13 11 11 5 13 21 13 25 23 35 44 45 46 46 44 48 51 52 51 47 42 34 31 26 22 15 13 12 9 8 11 15 17 20 24 26
16 13 13 15 12 11 9 11 9 15 6 7 3 15 6 9 32 40 40 43 46 48 50 50 53 57 57 60 57 51 45 41 37 30 22 18 14 12 6 2 4 9 12 16
12 17 11 9 9 9 12 7 14 6 4 7 5 8 7 6 12 21 30 40 46 48 47 49 50 52 54 54 48 46 43 42 40 33 29 25 23 22 23 21 19 19 19 19
13 9 9 10 15 16 14 5 6 3 4 3 6 3 11 13 5 9 19 34 39 42 42 45 47 46 46 44 43 40 36 35 34 32 29 27 25 24 21 18 18 18 20 23
11 4 8 13 6 12 8 6 11 9 6 4 13 13 8 10 12 15 23 31 35 37 38 39 39 38 39 36 34 30 27 26 23 22 21 20 19 19 20 21 22 23 25 25
3 11 2 5 8 5 8 10 5 6 3 11 5 5 6 19 2 31 32 36 32 31 32 30 28 28 29 29 29 25 23 21 22 24 24 26 27 28 29 30 31 31 31 31
12 6 16 9 11 13 10 14 9 11 6 7 8 11 4 5 26 49 44 36 30 25 22 20 19 20 22 24 25 24 24 23 22 23 26 27 28 30 31 33 36 38 39 43
12 9 1 3 5 8 8 7 3 8 5 6 8 2 4 9 12 31 39 33 27 21 14 9 9 12 16 21 21 20 18 19 20 21 22 25 28 30 33 33 35 41 41 42
12 6 2 5 9 6 8 10 6 5 2 7 9 11 8 17 20 15 20 30 26 19 12 5 2 5 8 7 7 9 10 12 15 19 21 22 25 28 32 36 40 44 47 50
9 6 5 6 10 17 4 4 4 6 10 9 4 11 7 23 25 24 31 37 31 22 17 12 6 4 7 6 9 13 19 23 29 33 34 35 35 35 34 35 39 44 47 51
3 9 8 11 5 8 1 11 12 9 11 6 5 15 8 19 34 39 39 40 32 24 20 15 6 5 7 7 11 20 28 30 34 41 45 47 51 52 53 55 58 60 59 56
7 2 4 13 8 2 6 6 9 9 4 12 9 10 5 19 22 31 21 29 28 23 22 15 9 8 12 16 19 34 36 37 41 46 51 55 59 61 63 67 69 73 76 78
4 8 12 18 8 7 7 9 7 8 6 7 15 12 12 11 10 12 24 22 27 26 19 15 15 15 15 17 24 34 38 40 43 47 54 59 63 68 74 81 84 86 86 88
10 15 6 4 5 4 9 13 15 14 10 13 9 21 28 5 8 7 22 29 30 23 12 9 12 13 15 23 30 30 33 37 42 49 56 59 63 70 80 87 94 98 98 96
2 5 6 5 7 5 11 14 18 21 23 22 29 39 18 9 18 24 27 29 20 8 7 7 7 21 33 30 31 30 34 40 49 55 57 59 66 75 81 90 98 101 100 103
8 11 6 9 6 8 16 13 33 19 14 16 21 25 3 9 20 31 26 15 10 8 5 20 31 27 25 31 32 34 37 43 51 57 65 75 80 85 89 93 97 101 105 110
11 10 5 7 6 2 11 5 2 18 9 13 5 6 8 5 21 26 21 15 6 15 23 25 29 29 26 24 29 39 49 57 62 65 70 76 84 89 93 98 103 108 109 114
2 9 5 7 8 13 17 12 14 14 13 15 15 4 7 21 22 18 24 11 20 19 24 24 23 25 32 42 50 55 61 64 68 74 80 84 88 96 100 104 107 109 111 114
3 4 8 6 11 19 11 5 19 13 10 18 18 18 23 30 6 9 12 25 26 29 25 23 26 34 42 49 53 59 64 70 75 79 83 87 91 94 100 102 106 107 105 108
6 1 22 10 8 16 16 10 9 11 13 23 31 29 40 11 23 24 27 26 31 31 32 35 38 42 44 48 53 60 68 73 78 83 87 89 90 92 93 98 97 96 92 90
15 16 10 5 7 18 22 15 14 10 18 26 33 35 42 29 33 34 31 35 34 36 37 39 40 41 43 47 56 65 69 75 80 85 88 90 90 89 87 85 82 78 78 83
5 14 12 20 14 9 50 18 53 26 22 30 36 35 38 40 36 36 33 35 37 39 38 39 42 44 44 51 59 65 69 74 79 83 87 89 88 85 79 75 74 74 73 78
10 13 5 8 9 16 47 46 33 37 37 37 39 44 42 43 39 36 33 35 37 37 38 41 40 40 47 55 59 62 67 71 75 81 84 85 86 80 71 67 68 71 73 74
15 17 11 6 11 20 39 55 60 51 45 45 42 46 47 43 38 36 37 36 36 36 36 36 37 42 48 54 56 58 62 66 72 78 80 82 78 72 69 66 67 67 67 66
20 12 9 16 38 30 34 52 43 44 49 46 46 48 50 46 41 37 35 35 34 34 33 33 38 45 51 55 54 54 56 61 67 75 78 78 72 68 68 71 73 61 60 61
Wind_Direction_850mb
178 120 205 205 200 159 194 219 229 253 262 281 262 283 271 328 299 129 114 109 99 91 87 86 86 92 103 111 122 124 142 138 168 184 193 202 220 216 229 239 251 263 274 277
60 223 232 186 181 210 229 241 251 272 254 222 282 287 57 19 17 116 115 109 105 101 94 86 83 83 82 82 83 86 89 92 91 97 111 134 155 200 235 244 254 262 266 264
177 221 193 177 210 203 216 210 220 232 312 275 340 292 91 61 74 84 95 110 105 99 93 88 84 81 81 76 73 73 74 77 76 73 78 83 91 90 84 40 317 293 288 276
227 242 189 164 205 179 275 208 233 227 105 232 62 275 309 134 87 76 94 103 104 101 95 89 83 77 72 72 71 67 66 67 67 65 59 53 47 38 33 18 0 338 322 300
241 194 173 187 220 162 221 161 165 176 191 32 296 126 272 124 127 124 103 107 102 96 90 84 80 76 70 63 56 51 43 39 35 30 30 29 27 26 20 11 6 2 348 329
234 264 182 200 153 166 135 63 45 48 88 307 227 174 253 188 199 145 130 121 112 105 97 88 80 73 64 58 51 45 37 35 28 17 9 359 352 346 337 336 335 339 339 337
205 239 237 181 110 45 95 77 313 343 5 231 124 133 281 323 101 146 141 134 123 114 105 92 76 62 51 44 41 34 29 27 24 17 12 9 3 357 352 348 345 341 338 336
174 249 163 189 185 180 178 159 165 220 214 259 288 238 233 56 102 132 139 135 132 128 115 97 71 51 43 34 26 27 27 26 24 17 12 8 2 357 355 351 349 344 340 337
170 250 115 147 132 139 168 165 180 97 51 53 244 31 138 117 107 133 146 153 154 144 126 93 55 27 17 11 13 20 24 23 15 11 4 356 350 345 341 339 334 330 330 325
203 138 193 159 112 43 142 160 74 8 273 280 284 275 215 186 180 177 168 169 169 171 175 194 286 353 356 11 30 34 35 28 14 2 353 341 331 325 322 321 319 316 315 316
149 121 229 124 206 179 126 181 132 149 147 179 258 258 287 184 174 182 187 191 191 197 208 216 234 310 359 13 24 15 10 6 3 359 355 350 342 338 333 326 321 315 312 311
277 130 169 197 320 320 184 179 161 168 233 234 168 264 340 155 171 176 194 206 210 213 208 201 232 316 326 318 343 351 346 342 342 342 339 337 337 336 333 330 328 326 322 315
210 122 62 349 348 290 193 177 134 114 83 202 169 254 22 126 152 190 215 219 219 208 195 203 237 297 314 318 321 329 322 320 319 321 323 322 322 322 320 320 318 318 317 313
275 192 181 230 176 131 162 158 153 125 146 178 231 276 167 183 193 215 239 231 199 188 193 220 239 263 280 287 295 299 295 293 296 299 306 309 313 314 313 312 311 310 310 308
167 213 153 356 104 115 199 169 185 188 179 192 229 235 260 190 256 221 178 151 159 162 173 233 257 262 272 288 293 295 292 294 296 296 294 293 295 297 301 301 303 304 304 302
354 191 101 329 287 303 279 228 187 214 227 240 253 265 265 106 147 136 146 153 158 192 222 236 254 291 299 301 298 294 294 292 294 293 291 289 290 291 291 292 293 294 295 296
132 131 92 257 4 39 307 225 211 214 201 211 229 249 135 161 150 158 152 159 178 176 249 303 310 299 268 267 276 277 285 292 294 291 291 292 293 293 294 296 297 297 297 296
136 100 90 185 29 288 252 292 295 220 213 202 218 225 212 171 171 157 166 163 196 285 296 291 292 279 272 272 282 290 297 300 300 299 300 300 301 303 303 303 302 301 299 297
17 132 114 161 190 307 279 229 179 169 260 193 194 202 191 152 151 192 204 240 306 277 269 285 292 280 284 291 299 304 306 308 309 310 310 310 310 309 308 307 306 305 303 300
165 28 144 115 168 212 242 273 124 105 287 208 171 186 173 163 161 235 237 291 292 283 266 269 276 287 294 299 303 306 309 313 315 315 315 315 314 314 312 311 309 306 304 302
94 68 211 200 227 284 244 200 131 106 243 167 196 201 177 182 212 283 282 272 282 272 260 273 284 294 299 303 306 311 315 317 318 319 318 319 318 316 314 311 309 308 307 306
162 160 200 131 196 264 178 126 165 194 173 191 198 196 192 231 273 275 273 275 259 248 260 276 290 298 302 306 312 316 319 320 320 320 321 320 319 317 315 313 312 312 311 310
227 194 182 187 202 225 176 185 209 217 207 198 198 211 242 259 263 273 268 260 249 260 272 286 295 299 307 314 318 320 321 320 320 321 321 322 321 321 322 318 317 316 315 313
249 162 202 96 225 214 197 213 221 218 234 245 258 272 265 262 266 266 258 255 258 270 280 287 293 301 312 318 321 322 320 320 320 322 324 327 326 324 322 321 321 318 316 313
207 143 161 259 260 234 229 234 245 250 256 261 263 267 265 262 255 256 257 257 263 269 279 285 294 305 314 318 320 320 318 320 324 325 329 330 326 325 326 326 324 318 317 309
197 185 199 233 236 226 240 266 263 255 248 252 254 257 259 250 255 257 258 259 263 273 278 285 298 309 316 318 321 318 319 324 328 329 334 330 328 330 330 328 328 327 318 307